Weather History for Whiteman AFB, MO

Change the Weather History Date:

Friday, April 11, 2014

  Actual Average Record
Temperature  
Mean Temperature 60 °F -  
Max Temperature 75 °F 62 °F 78 °F (2002)
Min Temperature 45 °F 43 °F 32 °F (2009)
Degree Days  
Heating Degree Days 5    
Growing Degree Days 10 (Base 50)    
Moisture  
Dew Point 32 °F    
Average Humidity 37    
Maximum Humidity 65    
Minimum Humidity 17    
Precipitation  
Precipitation 0.00 in - - ()
Sea Level Pressure  
Sea Level Pressure 30.01 in    
Wind  
Wind Speed 5 mph (ESE)    
Max Wind Speed 10 mph    
Max Gust Speed -    
Visibility 10 miles    
Events      
Averages and records for this station are not official NWS values.
T = Trace of Precipitation, MM = Missing Value Source: NWS Daily Summary

Daily Weather History Graph

Daily Weather History Graph

Search for Another Location

Airport:

Trip Planner

Search our weather history database for the weather conditions in past years. The results will help you decide how hot, cold, wet, or windy it might be!

Date:

Astronomy

Apr. 11, 2014 Rise Set
Actual Time 6:43 AM CDT 7:47 PM CDT
Civil Twilight 6:16 AM CDT 8:14 PM CDT
Nautical Twilight 5:44 AM CDT 8:47 PM CDT
Astronomical Twilight 5:10 AM CDT 9:20 PM CDT
Moon 4:30 PM CDT (4/11) 4:37 AM CDT (4/11)
Length of Visible Light 13h 58m
Length of Day
13h 03m
Waxing Gibbous, 87% of the Moon is Illuminated
Apr 11
Waxing Gibbous
Apr 15
Full
Apr 22
Last Quarter
Apr 29
New
May 6
First Quarter

Hourly Weather History & Observations

Time (CDT) Temp. Windchill Dew Point Humidity Pressure Visibility Wind Dir Wind Speed Gust Speed Precip Events Conditions
12:58 AM 45.5 °F - 31.6 °F 58% 30.01 in 10.0 mi ENE 1.2 mph - N/A   Partly Cloudy
1:58 AM 45.3 °F 43.0 °F 32.4 °F 61% 30.02 in 10.0 mi North 4.6 mph - N/A   Scattered Clouds
2:58 AM 45.3 °F 44.0 °F 34.3 °F 65% 30.02 in 10.0 mi NE 3.5 mph - N/A   Scattered Clouds
3:58 AM 48.4 °F - 30.9 °F 51% 30.03 in 10.0 mi ENE 4.6 mph - N/A   Overcast
4:58 AM 49.3 °F - 30.0 °F 48% 30.03 in 10.0 mi ENE 2.3 mph - N/A   Overcast
5:58 AM 46.2 °F 43.3 °F 27.7 °F 48% 30.06 in 10.0 mi ENE 5.8 mph - N/A   Mostly Cloudy
6:58 AM 47.5 °F - 28.6 °F 48% 30.08 in 10.0 mi ESE 2.3 mph - N/A   Mostly Cloudy
7:58 AM 48.7 °F - 31.6 °F 52% 30.08 in 10.0 mi SE 4.6 mph - N/A   Mostly Cloudy
8:58 AM 54.5 °F - 32.0 °F 42% 30.07 in 10.0 mi ESE 8.1 mph - N/A   Mostly Cloudy
9:58 AM 57.4 °F - 30.7 °F 36% 30.08 in 10.0 mi ESE 9.2 mph - N/A   Mostly Cloudy
10:58 AM 61.9 °F - 29.8 °F 30% 30.09 in 10.0 mi ESE 10.4 mph - N/A   Scattered Clouds
11:58 AM 66.0 °F - 27.7 °F 24% 30.08 in 10.0 mi SSE 9.2 mph - N/A   Clear
12:58 PM 68.4 °F - 28.6 °F 23% 30.06 in 10.0 mi South 8.1 mph - N/A   Clear
1:58 PM 71.1 °F - 30.9 °F 23% 30.04 in 10.0 mi Variable 5.8 mph - N/A   Clear
2:58 PM 72.5 °F - 25.5 °F 17% 30.00 in 10.0 mi ESE 6.9 mph - N/A   Clear
3:58 PM 74.3 °F - 31.6 °F 21% 29.99 in 10.0 mi East 6.9 mph - N/A   Clear
4:58 PM 75.0 °F - 35.1 °F 23% 29.96 in 10.0 mi ESE 6.9 mph - N/A   Clear
5:58 PM 74.8 °F - 34.9 °F 23% 29.95 in 10.0 mi ESE 6.9 mph - N/A   Clear
6:58 PM 72.5 °F - 37.2 °F 28% 29.94 in 10.0 mi SE 4.6 mph - N/A   Clear
7:58 PM 68.0 °F - 33.6 °F 28% 29.94 in 10.0 mi East 5.8 mph - N/A   Clear
8:58 PM 63.9 °F - 32.7 °F 31% 29.94 in 10.0 mi East 5.8 mph - N/A   Clear
9:58 PM 61.7 °F - 33.4 °F 35% 29.95 in 10.0 mi ESE 5.8 mph - N/A   Clear
10:58 PM 60.1 °F - 34.0 °F 38% 29.93 in 10.0 mi ESE 5.8 mph - N/A   Clear
11:58 PM 58.5 °F - 35.6 °F 42% 29.92 in 10.0 mi SE 6.9 mph - N/A   Clear